Station THLO1 - Toledo Light No. 2 OH Image indicating link to RSS feed of recent meteorological observations for station THLO1


Conditions at THLO1 as of
(8:30 pm EDT on 09/05/2026)
0030 GMT on 09/06/2026:
     

Click on the graph icon in the table below to see a time series plot of the last five days of that observation.

5-day plot - Wind Direction Wind Direction (WDIR): NE ( 50 deg true )
5-day plot - Wind Speed Wind Speed (WSPD): 12 kts
5-day plot - Wind Gust Wind Gust (GST): 16 kts
5-day plot - Atmospheric Pressure Atmospheric Pressure (PRES):30.00 in
5-day plot - Air Temperature Air Temperature (ATMP): 73.4 °F
5-day plot - Dew Point Dew Point (DEWP): 64.0 °F
5-day plot - Wind Speed at 10 Meters Wind Speed at 10 meters (WSPD10M): 12 kts
5-day plot - Wind Speed at 20 Meters Wind Speed at 20 meters (WSPD20M): 14 kts
5-day plot -  Wind Speed, Wind Gust and Atmospheric Pressure Combined plot of Wind Speed, Gust, and Air Pressure
Previous observations
TIME
(EDT)
5-day plot - Wind Direction
WDIR
 
5-day plot - Wind Speed
WSPD
kts
5-day plot - Wind Gust
GST
kts
5-day plot - Wave Height
WVHT
ft
5-day plot - Dominant Wave Period
DPD
sec
5-day plot - Average Wave Period
APD
sec
5-day plot - Mean Wave Direction
MWD
 
5-day plot - Atmospheric Pressure
PRES
in
5-day plot - Pressure Tendency
PTDY
in
5-day plot - Air Temperature
ATMP
°F
5-day plot - Water Temperature
WTMP
°F
5-day plot - Dew Point
DEWP
°F
5-day plot - Salinity
SAL
psu
5-day plot - Visibility
VIS
nmi
5-day plot - Tide (above MLLW)
TIDE
ft
2026-09-05 08:20 pm NE 12 15----29.99- 73.4- 64.0---
2026-09-05 08:10 pmENE 10 12----29.99- 73.2- 64.2---
2026-09-05 08:00 pmENE 10 13----29.99+0.02 73.2- 64.2---
2026-09-05 07:50 pmENE 10 12----29.99- 73.2- 64.4---
2026-09-05 07:40 pmENE 11 13----29.99- 73.2- 64.0---
2026-09-05 07:30 pmENE 11 13----29.99- 73.2- 64.0---
2026-09-05 07:20 pm E 11 14----29.99- 73.2- 64.2---
2026-09-05 07:10 pm E 11 13----29.99- 73.2- 64.4---
2026-09-05 07:00 pm E 12 13----29.98+0.00 73.2- 64.0---
2026-09-05 06:50 pm E 12 13----29.99- 73.2- 63.9---
2026-09-05 06:40 pm E 13 15----29.99- 73.4- 63.3---
2026-09-05 06:30 pm E 12 14----29.98- 73.6- 62.8---
2026-09-05 06:20 pm E 12 14----29.98- 73.4- 63.7---
2026-09-05 06:10 pm E 12 14----29.98- 73.2- 64.0---
2026-09-05 06:00 pm E 13 15----29.98+0.00 73.2- 64.8---
2026-09-05 05:50 pm E 13 15----29.98- 73.4- 64.4---
2026-09-05 05:40 pm E 14 16----29.98- 73.2- 64.6---
2026-09-05 05:30 pm E 14 17----29.97- 73.0- 64.8---
2026-09-05 05:20 pm E 14 15----29.97- 73.0- 65.1---
2026-09-05 05:10 pm E 14 15----29.98- 73.2- 64.6---
2026-09-05 05:00 pm E 13 15----29.98-0.01 73.0- 64.8---
2026-09-05 04:50 pm E 13 15----29.98- 73.0- 64.8---
2026-09-05 04:40 pmENE 14 15----29.98- 73.2- 64.6---
2026-09-05 04:30 pmENE 14 15----29.98- 73.2- 64.2---
2026-09-05 04:20 pmENE 14 15----29.98- 73.2- 64.0---
2026-09-05 04:10 pmENE 13 15----29.98- 73.0- 64.4---
2026-09-05 04:00 pmENE 14 16----29.98+0.00 73.2- 64.6---
2026-09-05 03:50 pmENE 15 17----29.98- 73.2- 63.9---
2026-09-05 03:40 pmENE 15 17----29.98- 73.2- 64.6---
2026-09-05 03:30 pmENE 14 16----29.99- 73.2- 64.9---
2026-09-05 03:20 pmENE 15 16----29.98- 73.2- 64.6---
2026-09-05 03:10 pmENE 15 17----29.99- 73.0- 65.5---
2026-09-05 03:00 pmENE 14 17----29.99+0.00 73.0- 66.4---
2026-09-05 02:50 pmENE 15 17----29.98- 73.0- 66.6---
2026-09-05 02:40 pmENE 15 17----29.98- 73.0- 66.4---
2026-09-05 02:30 pmENE 15 17----29.99- 73.0- 66.6---
2026-09-05 02:20 pmENE 15 17----29.98- 73.0- 66.6---
2026-09-05 02:10 pmENE 15 16----29.98- 72.9- 66.6---
2026-09-05 02:00 pmENE 15 17----29.98+0.02 72.9- 66.7---
2026-09-05 01:50 pmENE 15 16----29.98- 72.9- 66.9---
2026-09-05 01:40 pmENE 15 17----29.98- 72.9- 66.9---
2026-09-05 01:30 pmENE 16 19----29.98- 72.9- 67.1---
2026-09-05 01:20 pm NE 16 19----29.99- 73.0- 67.1---
2026-09-05 01:10 pm NE 16 17----29.99- 72.9- 67.1---
2026-09-05 01:00 pm NE 15 17----29.99+0.04 72.9- 67.8---
2026-09-05 12:50 pm NE 14 16----29.99- 72.7- 67.8---
2026-09-05 12:40 pm NE 14 16----29.98- 72.7- 68.0---
2026-09-05 12:30 pm NE 14 16----29.99- 72.7- 68.2---
2026-09-05 12:20 pm NE 14 17----29.98- 72.9- 68.2---
2026-09-05 12:10 pm NE 15 17----29.98- 72.9- 68.0---
2026-09-05 12:00 pm NE 14 16----29.98+0.03 72.7- 68.4---
2026-09-05 11:50 am NE 14 16----29.98- 72.3- 68.4---
2026-09-05 11:40 am NE 15 17----29.98- 72.1- 68.0---
2026-09-05 11:30 am NE 13 15----29.98- 72.1- 68.2---
2026-09-05 11:20 am NE 14 16----29.98- 72.1- 68.4---
2026-09-05 11:10 am NE 14 16----29.97- 72.0- 68.5---
2026-09-05 11:00 am NE 15 16----29.97+0.02 71.8- 68.7---
2026-09-05 10:50 am NE 14 16----29.97- 72.0- 68.5---
2026-09-05 10:40 am NE 13 15----29.96- 72.1- 68.5---
2026-09-05 10:30 amENE 13 14----29.96- 72.0- 68.2---
2026-09-05 10:20 amENE 13 15----29.96- 72.0- 68.2---
2026-09-05 10:10 am NE 14 16----29.96- 71.6- 68.4---
2026-09-05 10:00 amENE 14 16----29.95+0.02 71.6- 68.4---
2026-09-05 09:50 am NE 15 17----29.95- 71.6- 68.4---
2026-09-05 09:40 am NE 14 16----29.95- 71.4- 68.4---
2026-09-05 09:30 am NE 14 16----29.96- 71.4- 68.7---
2026-09-05 09:20 am NE 13 14----29.95- 71.1- 68.4---
2026-09-05 09:10 am NE 14 16----29.95- 71.1- 68.5---
2026-09-05 09:00 am NE 13 14----29.95+0.00 71.4- 69.4---
2026-09-05 08:50 am NE 13 14----29.95- 71.4- 69.6---
2026-09-05 08:40 am NE 14 16----29.95- 71.6- 70.0---
2026-09-05 08:30 am NE 14 16----29.95- 71.8- 70.3---
2026-09-05 08:20 am NE 13 15----29.95- 72.0- 70.5---
2026-09-05 08:10 am NE 14 15----29.95- 72.1- 70.7---
2026-09-05 08:00 am NE 13 15----29.95+0.00 72.1- 70.7---
2026-09-05 07:50 am NE 13 15----29.95- 72.7- 71.2---
2026-09-05 07:40 amENE 12 13----29.94- 72.5- 71.2---
2026-09-05 07:30 amENE 12 13----29.94- 72.5- 71.1---
2026-09-05 07:20 amENE 12 14----29.93- 72.5- 71.1---
2026-09-05 07:10 amENE 13 15----29.93- 72.5- 70.7---
2026-09-05 07:00 amENE 13 15----29.93+0.00 72.5- 70.9---
2026-09-05 06:50 amENE 12 13----29.94- 72.5- 70.9---
2026-09-05 06:40 am NE 11 13----29.94- 72.5- 70.9---
2026-09-05 06:30 am NE 10 11----29.95- 72.5- 70.9---
2026-09-05 06:20 am NE 10 11----29.94- 72.7- 70.9---
2026-09-05 06:10 am NE 10 11----29.94- 72.7- 70.7---
2026-09-05 06:00 am NE 9 10----29.95+0.01 72.7- 70.7---
2026-09-05 05:50 am NE 8 10----29.95- 72.7- 70.5---
2026-09-05 05:40 am NE 8 9----29.95- 72.7- 70.5---
2026-09-05 05:30 amENE 7 8----29.95- 72.7- 70.5---
2026-09-05 05:20 am E 6 7----29.95- 72.5- 70.5---
2026-09-05 05:10 amENE 8 9----29.95- 72.5- 70.5---
2026-09-05 05:00 am NE 5 7----29.95+0.01 72.5- 70.9---
2026-09-05 04:50 amNNE 8 9----29.95- 72.5- 71.1---
2026-09-05 04:40 amNNE 9 10----29.95- 72.9- 71.2---
2026-09-05 04:30 amNNE 11 12----29.93- 73.0- 71.4---
2026-09-05 04:20 amNNE 12 13----29.92- 73.2- 71.4---
2026-09-05 04:10 amNNE 10 13----29.93- 73.9- 71.8---
2026-09-05 04:00 amNNE 8 10----29.93-0.02 74.3- 71.8---
2026-09-05 03:50 am NE 8 8----29.93- 74.3- 71.8---
2026-09-05 03:40 amNNE 7 8----29.93- 74.5- 71.6---
2026-09-05 03:30 amNNE 7 7----29.94- 74.7- 71.8---
2026-09-05 03:20 amNNE 6 7----29.94- 74.7- 71.8---
2026-09-05 03:10 am NE 6 7----29.94- 74.8- 71.6---
2026-09-05 03:00 am NE 6 8----29.93-0.04 74.8- 71.8---
2026-09-05 02:50 amENE 5 6----29.93- 75.0- 71.8---
2026-09-05 02:40 amENE 5 7----29.93- 75.0- 72.0---
2026-09-05 02:30 am E 4 5----29.94- 74.8- 72.1---
2026-09-05 02:20 amENE 4 5----29.94- 74.8- 72.1---
2026-09-05 02:10 am E 3 4----29.94- 75.0- 72.1---
2026-09-05 02:00 am E 4 5----29.94-0.03 75.0- 71.8---
2026-09-05 01:50 amENE 4 5----29.95- 75.0- 72.1---
2026-09-05 01:40 amENE 4 5----29.95- 75.0- 72.3---
2026-09-05 01:30 am NE 5 6----29.95- 75.2- 72.3---
2026-09-05 01:20 am NE 4 5----29.95- 75.0- 72.9---
2026-09-05 01:10 amENE 3 3----29.96- 75.0- 72.9---
2026-09-05 01:00 amENE 3 3----29.95-0.02 75.0- 72.7---
2026-09-05 12:50 am- 0 2----29.96- 75.0- 72.7---
2026-09-05 12:40 amNNE 2 3----29.96- 75.2- 72.7---
2026-09-05 12:30 amNNE 4 4----29.96- 75.0- 72.3---
2026-09-05 12:20 am N 3 4----29.96- 75.2- 72.1---
2026-09-05 12:10 amNNW 3 4----29.97- 75.0- 72.1---
2026-09-05 12:00 amWNW 4 6----29.98-0.01 75.2- 72.3---
2026-09-04 11:50 pmWNW 5 7----29.98- 75.4- 72.5---
2026-09-04 11:40 pmNNW 5 5----29.98- 75.4- 72.1---
2026-09-04 11:30 pmNNW 5 6----29.98- 75.2- 72.0---
2026-09-04 11:20 pmNNW 7 8----29.97- 75.2- 71.6---
2026-09-04 11:10 pmNNW 6 7----29.97- 75.2- 71.8---
2026-09-04 11:00 pmNNW 5 6----29.97-0.01 75.0- 71.8---
2026-09-04 10:50 pm N 5 7----29.96- 75.0- 72.0---
2026-09-04 10:40 pmNNW 7 8----29.97- 75.4- 72.0---
2026-09-04 10:30 pm N 5 6----29.97- 75.0- 72.5---
2026-09-04 10:20 pm N 5 7----29.98- 75.6- 72.7---
2026-09-04 10:10 pmNNE 5 5----29.98- 75.6- 72.5---
2026-09-04 10:00 pmNNE 3 4----29.98+0.01 75.4- 72.3---
2026-09-04 09:50 pmNNE 5 5----29.98- 75.4- 72.3---
2026-09-04 09:40 pm N 4 5----29.97- 75.6- 72.5---
2026-09-04 09:30 pm N 3 4----29.98- 75.7- 72.1---
2026-09-04 09:20 pm N 3 4----29.98- 75.9- 71.4---
2026-09-04 09:10 pm N 3 4----29.98- 75.9- 71.8---
2026-09-04 09:00 pmNNW 4 5----29.98+0.02 76.1- 72.9---
2026-09-04 08:50 pm NW 5 5----29.98- 76.5- 72.1---
2026-09-04 08:40 pmNNW 5 5----29.98- 76.5- 72.3---
2026-09-04 08:30 pm NW 4 4----29.98- 76.1- 73.0---
2026-09-04 08:20 pm W 4 5----29.98- 75.9- 72.9---
2026-09-04 08:10 pm W 4 5----29.98- 75.9- 72.5---
2026-09-04 08:00 pm W 6 6----29.98+0.02 76.1- 72.1---
2026-09-04 07:50 pm W 4 5----29.98- 75.9- 72.3---